Погода в Тевзане

Россия / Чеченская Республика     42°58′34″N   45°54′39″E
темп.,
°C
ветер,
м/с
пор.,
м/с
влажн.,
%
обл.,
%
осадки,
мм/ч
давл.,
гПа
погр.,
м
21 января, чт
чт2100:00−7ссз1293100 0.7 1027211
03:00−7з119199 0.9 1028101
06:00−8ююз127957 0.0 103031
09:00−5юз124928 0.0 1031274
12:00−2сз24380 0.0 1031904
15:00−2сз24420 0.0 1031817
18:00−4ююз22530 0.0 103427
21:00−3ю22450 0.0 103431
22 января, пт
пт2200:00−3ю22480 0.0 103528
03:00−3ю22410 0.0 103425
06:00−3ююв22370 0.0 103322
09:000юв12330 0.0 103388
12:00+4св11340 0.0 1031403
15:00+4ссв11430 0.0 1030375
18:00−1ююв12580 0.0 103121
21:00−1ююв22440 0.0 103122
23 января, сб
сб2300:00−1ююв12390 0.0 103022
03:00−2ю11360 0.0 102922
06:00−2ю11360 0.0 102921
09:00+1ссв01320 0.0 102856
12:00+4с21330 0.0 1026313
15:00+3с11470 0.0 1025240
18:00−2ююз11620 0.0 102621
21:00−1юз11580 0.0 102621
24 января, вс
вс2400:00−1ю11480 0.0 102521
03:00−1ююв11400 0.0 102422
06:00−1юв11370 0.0 102421
09:00+2вюв01311 0.0 102430
12:00+6ссв11300 0.0 1022217
15:00+5с11480 0.0 1020154
18:00+1ю11560 0.0 102222
21:00+1ю11500 0.0 102122
25 января, пн
пн2500:00+2ю11390 0.0 102123
03:00+2ююв12340 0.0 102023
06:00+1ю113426 0.0 102022
09:00+4юв013063 0.0 102123
12:00+7с113478 0.0 1019184
15:00+7ссв114684 0.0 1019100
18:00+3ююв115464 0.0 102022
21:00+3ююв115032 0.0 102024